Location: Unspecified
(0.0000°N, 0.0000°E)
Time: 12:09:57
(UTC+00:00)

Transit 4A - Pass Details

Date: 18 December 2018
Orbit: 864 x 981 km, 66.8° (Epoch: 25 March)

Event Time Altitude Azimuth Distance (km) Brightness Sun altitude
Rises 11:48:07 0° 14° (NNE) 3,607 10.7 66.5°
Reaches altitude 10° 11:51:48 10° 36° (NE) 2,686 10.2 66.6°
Maximum altitude 11:55:20 15° 70° (ENE) 2,326 10.1 66.6°
Drops below altitude 10° 11:58:54 10° 105° (ESE) 2,719 10.6 66.6°
Sets 12:02:39 0° 126° (SE) 3,677 11.2 66.6°
